Meteo Giornale » Osservazioni meteo Italia » Roma Fiumicino

ore: 00:50 - Osservazioni Meteo Roma Fiumicino
Lat. 41° 48' N Lon. 12° 14' E Alt. 2 metri s.l.m.

sereno Europe/Rome

20 °C

Sereno

Temp. 24 Ore

17 °C

26 °C

Ovest/Nord-Ovest

11.1 Km/h

Dew point 19 °C

Umidità 93 %

Visibilità  10 Km

Il sole sorge alle ore 05:34

Il sole tramonta alle ore 20:50

Data e Ora Cielo e Fenomeni T °C DP °C Um. % Pres. hPa Vis. km Vento km/h
Oggi h: 00:50 sereno Sereno 20 19 93 1014 10 O/NO 11.1
Oggi h: 00:20 sereno Sereno 20 19 93 1014 10 O/NO 13
Ieri h: 23:50 sereno Sereno 21 19 88 1014 10 O/NO 14.8
Ieri h: 23:20 poco_nuvoloso Poco Nuvoloso 21 19 88 1014 10 O/NO 13
Ieri h: 22:50 sereno Sereno 21 19 88 1014 10 O/NO 11.1
Ieri h: 22:20 sereno Sereno 21 20 94 1014 10 O 11.1
Ieri h: 21:50 sereno Sereno 21 19 88 1014 10 O 11.1
Ieri h: 21:20 sereno Sereno 21 19 88 1013 10 O 11.1
Ieri h: 20:50 sereno Sereno 22 19 83 1013 10 O/NO 14.8
Ieri h: 20:20 sereno Sereno 22 19 83 1013 10 O 16.7
Ieri h: 19:50 sereno Sereno 23 18 73 1014 10 O 20.3
Ieri h: 19:20 sereno Sereno 24 18 69 1014 10 O/NO 18.5
Ieri h: 18:50 sereno Sereno 24 18 69 1013 10 O 20.3
Ieri h: 18:20 sereno Sereno 24 18 69 1013 10 O 24
Ieri h: 17:50 sereno Sereno 24 19 73 1014 10 O 24
Ieri h: 17:20 sereno Sereno 25 19 69 1014 10 O 22.2
Ieri h: 16:50 sereno Sereno 25 18 65 1014 10 O 22.2
Ieri h: 16:20 sereno Sereno 26 19 65 1014 10 O 20.3
Ieri h: 15:50 sereno Sereno 26 19 65 1014 10 O 20.3
Ieri h: 15:20 sereno Sereno 26 18 61 1014 10 O 20.3
Ieri h: 14:50 sereno Sereno 26 17 57 1014 10 O/NO 20.3
Ieri h: 14:20 sereno Sereno 26 17 57 1014 10 O/NO 18.5
Ieri h: 13:50 sereno Sereno 25 19 69 1015 10 O/NO 20.3
Ieri h: 13:20 sereno Sereno 26 19 65 1015 10 O 20.3
Ieri h: 12:50 sereno Sereno 26 19 65 1015 10 O 22.2
Ieri h: 12:20 sereno Sereno 25 19 69 1015 10 O 20.3
Ieri h: 11:50 sereno Sereno 25 19 69 1015 10 O 18.5
Ieri h: 11:20 sereno Sereno 26 19 65 1015 10 O 16.7
Ieri h: 10:50 sereno Sereno 25 19 69 1015 10 O 14.8
Ieri h: 10:20 sereno Sereno 25 19 69 1015 10 O 14.8
Ieri h: 09:50 sereno Sereno 25 18 65 1015 10 O/NO 13
Ieri h: 09:20 sereno Sereno 24 19 73 1015 10 O/NO 11.1
Ieri h: 08:50 sereno Sereno 24 19 73 1015 10 O 9.3
Ieri h: 08:20 sereno Sereno 24 19 73 1014 10 O/NO 7.4
Ieri h: 07:50 sereno Sereno 21 19 88 1014 10 N 3.7
Ieri h: 07:20 sereno Sereno 20 18 88 1014 10 N 1.8
Ieri h: 06:50 sereno Sereno 18 17 93 1014 10 N 3.7
Ieri h: 06:20 sereno Sereno 17 17 100 1014 10 N 3.7
Ieri h: 05:50 sereno Sereno 18 17 93 1014 10 N 5.5
Ieri h: 05:20 sereno Sereno 18 17 93 1014 10 N 5.5
Ieri h: 04:50 sereno Sereno 19 17 88 1014 10 N 3.7
Ieri h: 04:20 sereno Sereno 19 17 88 1014 10 N 5.5
Ieri h: 03:50 sereno Sereno 18 17 93 1014 10 N 7.4
Ieri h: 03:20 sereno Sereno 19 18 93 1014 10 N 5.5
Ieri h: 02:50 sereno Sereno 20 18 88 1014 10 N/NO 7.4
Ieri h: 02:20 sereno Sereno 20 18 88 1014 10 NO 7.4
Ieri h: 01:50 sereno Sereno 21 19 88 1014 10 NO 7.4